KE8HFO Weather Reports


time (UTC)temp
C
wind
direction
speed
KPH
gust
KPH
rain 1hr
cm
rain 24hr
cm
rain mn
cm
humidity
%
barometer
mb
20260508200535 18 40 3.2 12.9 0.00 0.00 0.00 51 1011.6
20260508200058 18 60 3.2 12.9 0.00 0.00 0.00 51 1011.5
20260508195535 18 92 3.2 12.9 0.00 0.00 0.00 48 1011.5
20260508195035 19 56 3.2 9.7 0.00 0.00 0.00 48 1011.7
20260508194556 20 31 1.6 9.7 0.00 0.00 0.00 49 1011.6
20260508194035 20 71 1.6 9.7 0.00 0.00 0.00 49 1011.4
20260508193535 19 50 3.2 17.7 0.00 0.00 0.00 48 1011.5
20260508193053 18 53 4.8 22.5 0.00 0.00 0.00 46 1011.8
20260508192535 18 83 6.4 22.5 0.00 0.00 0.00 49 1012.0
20260508192037 18 40 6.4 24.1 0.00 0.00 0.00 48 1011.8
20260508191556 18 88 6.4 24.1 0.00 0.00 0.00 48 1012.1
20260508191035 19 33 8.0 24.1 0.00 0.00 0.00 50 1012.1
20260508190537 19 57 8.0 19.3 0.00 0.00 0.00 50 1012.2
20260508190054 19 49 6.4 19.3 0.00 0.00 0.00 49 1012.3
20260508185535 18 23 6.4 17.7 0.00 0.00 0.00 51 1012.4
20260508185036 18 108 8.0 19.3 0.00 0.00 0.00 52 1012.5
20260508184555 18 316 8.0 19.3 0.00 0.00 0.00 51 1012.4
20260508184036 19 106 3.2 16.1 0.00 0.00 0.00 49 1012.6
20260508183538 18 339 8.0 22.5 0.00 0.00 0.00 54 1012.5
20260508183047 18 88 8.0 22.5 0.00 0.00 0.00 53 1012.6
20260508182535 18 295 4.8 12.9 0.00 0.00 0.00 55 1012.5
20260508182037 18 123 3.2 12.9 0.00 0.00 0.00 54 1012.8
20260508181552 18 69 1.6 9.7 0.00 0.00 0.00 52 1012.7
20260508181035 18 24 3.2 12.9 0.00 0.00 0.00 54 1013.0
20260508180540 18 282 3.2 14.5 0.00 0.00 0.00 53 1012.9
20260508180053 18 29 3.2 14.5 0.00 0.00 0.00 52 1013.1
20260508175537 18 27 4.8 14.5 0.00 0.00 0.00 53 1013.0
20260508175038 18 223 4.8 16.1 0.00 0.00 0.00 51 1013.1
20260508174553 18 291 6.4 16.1 0.00 0.00 0.00 49 1013.1
20260508174037 19 42 4.8 19.3 0.00 0.00 0.00 49 1013.2
20260508173538 18 32 4.8 19.3 0.00 0.00 0.00 51 1013.3
20260508173052 19 349 6.4 19.3 0.00 0.00 0.00 51 1013.4
20260508172534 19 48 6.4 19.3 0.00 0.00 0.00 54 1013.4
20260508172037 18 85 8.0 19.3 0.00 0.00 0.00 54 1013.5
20260508171555 18 257 6.4 19.3 0.00 0.00 0.00 53 1013.6
20260508171037 18 321 8.0 20.9 0.00 0.00 0.00 51 1013.9
20260508170540 18 68 6.4 20.9 0.00 0.00 0.00 54 1013.9
20260508170054 18 46 4.8 12.9 0.00 0.00 0.00 55 1013.9
20260508165539 18 331 3.2 12.9 0.00 0.00 0.00 57 1014.1
20260508165038 17 57 4.8 11.3 0.00 0.00 0.00 54 1014.1
20260508164555 18 35 3.2 11.3 0.00 0.00 0.00 57 1014.2
20260508164035 17 10 4.8 9.7 0.00 0.00 0.00 58 1014.2
20260508163533 17 302 1.6 14.5 0.00 0.00 0.00 56 1014.4
20260508163054 16 102 6.4 16.1 0.00 0.00 0.00 56 1014.4
20260508162534 16 20 8.0 16.1 0.00 0.00 0.00 56 1014.4
20260508162038 16 30 6.4 16.1 0.00 0.00 0.00 59 1014.5
20260508161552 16 65 6.4 16.1 0.00 0.00 0.00 57 1014.7
20260508161038 16 98 3.2 14.5 0.00 0.00 0.00 56 1014.8
20260508160534 16 69 4.8 16.1 0.00 0.00 0.00 56 1014.8
20260508160055 16 342 4.8 16.1 0.00 0.00 0.00 57 1014.7
20260508155535 16 341 4.8 14.5 0.00 0.00 0.00 58 1014.7
20260508155033 16 355 4.8 14.5 0.00 0.00 0.00 57 1014.8
20260508154545 16 28 8.0 17.7 0.00 0.00 0.00 57 1014.7
20260508154034 16 339 4.8 17.7 0.00 0.00 0.00 59 1014.9
20260508153537 16 292 8.0 17.7 0.00 0.00 0.00 59 1014.8
20260508153051 15 49 9.7 17.7 0.00 0.00 0.00 58 1014.8
20260508152534 15 51 3.2 17.7 0.00 0.00 0.00 58 1014.8
20260508152034 15 351 8.0 17.7 0.00 0.00 0.00 57 1014.8
20260508151546 15 63 6.4 12.9 0.00 0.00 0.00 56 1014.9
20260508151035 15 55 4.8 12.9 0.00 0.00 0.00 59 1015.0
20260508150534 15 98 3.2 12.9 0.00 0.00 0.00 58 1015.0
20260508150044 15 349 4.8 11.3 0.00 0.00 0.00 57 1015.0
20260508145536 15 14 3.2 11.3 0.00 0.00 0.00 58 1015.1
20260508145034 15 44 3.2 17.7 0.00 0.00 0.00 61 1015.1
20260508144550 15 55 3.2 17.7 0.00 0.00 0.00 59 1015.1
20260508144035 15 79 4.8 14.5 0.00 0.00 0.00 57 1015.1
20260508143535 14 33 3.2 17.7 0.00 0.00 0.00 59 1015.3
20260508143044 15 333 4.8 17.7 0.00 0.00 0.00 60 1015.3
20260508142536 15 51 4.8 20.9 0.00 0.00 0.00 59 1015.3
20260508142037 14 113 3.2 20.9 0.00 0.00 0.00 58 1015.3
20260508141550 13 109 6.4 16.1 0.00 0.00 0.00 58 1015.4
20260508141036 13 324 3.2 12.9 0.00 0.00 0.00 59 1015.3
20260508140538 13 284 3.2 12.9 0.00 0.00 0.00 59 1015.4
20260508140051 13 37 3.2 22.5 0.00 0.00 0.00 59 1015.5
20260508135536 13 351 4.8 22.5 0.00 0.00 0.00 57 1015.6
20260508135036 13 261 1.6 12.9 0.00 0.00 0.00 61 1015.5
20260508134548 13 74 4.8 14.5 0.00 0.00 0.00 59 1015.6
20260508134034 13 35 3.2 14.5 0.00 0.00 0.00 63 1015.5
20260508133538 12 347 6.4 14.5 0.00 0.00 0.00 61 1015.3
20260508133043 12 0 3.2 12.9 0.00 0.00 0.00 61 1015.3
20260508132536 12 67 1.6 11.3 0.00 0.00 0.00 61 1015.4
20260508132036 12 66 3.2 11.3 0.00 0.00 0.00 61 1015.4
20260508131556 12 62 4.8 14.5 0.00 0.00 0.00 62 1015.3
20260508131036 12 74 3.2 14.5 0.00 0.00 0.00 64 1015.3
20260508130537 11 5 4.8 14.5 0.00 0.00 0.00 63 1015.3
20260508130108 11 41 3.2 9.7 0.00 0.00 0.00 66 1015.3
20260508125537 11 116 3.2 8.0 0.00 0.00 0.00 65 1015.4
20260508125036 11 44 1.6 8.0 0.00 0.00 0.00 69 1015.4
20260508124552 10 316 1.6 6.4 0.00 0.00 0.00 71 1015.3
20260508124037 10 23 1.6 8.0 0.00 0.00 0.00 72 1015.3
20260508123539 10 42 3.2 8.0 0.00 0.00 0.00 74 1015.2
20260508123047 9 28 3.2 8.0 0.00 0.00 0.00 76 1015.3
20260508122538 8 20 0.0 4.8 0.00 0.00 0.00 78 1015.3
20260508122036 8 0 0.0 6.4 0.00 0.00 0.00 77 1015.4
20260508121555 8 0 0.0 6.4 0.00 0.00 0.00 78 1015.4
20260508121034 8 33 3.2 6.4 0.00 0.00 0.00 77 1015.3
20260508120533 8 24 3.2 6.4 0.00 0.00 0.00 79 1015.3
20260508120046 7 38 1.6 4.8 0.00 0.00 0.00 81 1015.2
20260508115533 7 29 1.6 4.8 0.00 0.00 0.00 80 1015.1
20260508115037 7 9 0.0 4.8 0.00 0.00 0.00 81 1015.1
20260508114549 6 9 0.0 4.8 0.00 0.00 0.00 81 1015.1
20260508114039 6 341 0.0 3.2 0.00 0.00 0.00 82 1015.0
20260508113537 6 38 0.0 3.2 0.00 0.00 0.00 82 1015.0
20260508113053 6 27 0.0 3.2 0.00 0.00 0.00 82 1014.9
20260508112536 6 24 0.0 3.2 0.00 0.00 0.00 82 1015.0
20260508112036 6 34 0.0 1.6 0.00 0.00 0.00 83 1015.0
20260508111554 5 33 0.0 1.6 0.00 0.00 0.00 83 1014.9
20260508111037 5 33 0.0 1.6 0.00 0.00 0.00 83 1014.8
20260508110536 5 33 0.0 1.6 0.00 0.00 0.00 83 1014.9
20260508110049 5 0 0.0 1.6 0.00 0.00 0.00 83 1014.7
20260508105538 5 34 0.0 1.6 0.00 0.00 0.00 83 1014.8
20260508105041 5 0 0.0 1.6 0.00 0.00 0.00 83 1014.8
20260508104617 5 0 0.0 1.6 0.00 0.00 0.00 83 1014.8
20260508104033 5 34 0.0 1.6 0.00 0.00 0.00 83 1014.7
20260508103533 5 30 0.0 1.6 0.00 0.00 0.00 82 1014.8
20260508103051 5 0 0.0 1.6 0.00 0.00 0.00 83 1014.7
20260508102536 5 0 0.0 1.6 0.00 0.00 0.00 83 1014.7
20260508102038 5 0 0.0 1.6 0.00 0.00 0.00 82 1014.6
20260508101550 5 0 0.0 1.6 0.00 0.00 0.00 82 1014.6
20260508101036 5 0 0.0 1.6 0.00 0.00 0.00 82 1014.8
20260508100535 5 0 0.0 1.6 0.00 0.00 0.00 82 1014.6
20260508100049 5 0 0.0 1.6 0.00 0.00 0.00 82 1014.7
20260508095537 5 0 0.0 1.6 0.00 0.00 0.00 82 1014.6
20260508095037 5 30 0.0 1.6 0.00 0.00 0.00 82 1014.6
20260508094547 5 31 0.0 3.2 0.00 0.00 0.00 82 1014.9
20260508094036 5 29 0.0 3.2 0.00 0.00 0.00 82 1014.8
20260508093537 5 29 0.0 3.2 0.00 0.00 0.00 82 1014.9
20260508093051 5 0 0.0 1.6 0.00 0.00 0.00 83 1014.8
20260508092536 5 34 0.0 1.6 0.00 0.00 0.00 82 1014.6
20260508092037 5 0 0.0 0.0 0.00 0.00 0.00 82 1014.5
20260508091544 5 0 0.0 0.0 0.00 0.00 0.00 82 1014.7
20260508091036 5 0 0.0 0.0 0.00 0.00 0.00 82 1014.8
20260508090533 5 0 0.0 0.0 0.00 0.00 0.00 81 1014.8
20260508090105 5 0 0.0 0.0 0.00 0.00 0.00 81 1014.8
20260508085536 5 0 0.0 0.0 0.00 0.00 0.00 81 1014.7
20260508085034 5 0 0.0 0.0 0.00 0.00 0.00 80 1014.6
20260508084549 5 0 0.0 1.6 0.00 0.00 0.00 80 1014.8
20260508084037 5 0 0.0 1.6 0.00 0.00 0.00 80 1014.7
20260508083534 5 0 0.0 0.0 0.00 0.00 0.00 80 1014.8
20260508083103 5 34 0.0 0.0 0.00 0.00 0.00 80 1014.8
20260508082536 5 0 0.0 0.0 0.00 0.00 0.00 81 1014.7
20260508082036 5 0 0.0 0.0 0.00 0.00 0.00 80 1014.6
20260508081555 6 0 0.0 0.0 0.00 0.00 0.00 79 1014.7
20260508081036 6 0 0.0 0.0 0.00 0.00 0.00 77 1014.7
20260508080536 6 0 0.0 0.0 0.00 0.00 0.00 76 1014.7
20260508080048 6 0 0.0 0.0 0.00 0.00 0.00 75 1014.5
20260508075536 6 0 0.0 0.0 0.00 0.00 0.00 75 1014.6
20260508075036 7 0 0.0 0.0 0.00 0.00 0.00 76 1014.5
20260508074547 7 0 0.0 1.6 0.00 0.00 0.00 75 1014.6
20260508074036 7 0 0.0 1.6 0.00 0.00 0.00 71 1014.8
20260508073536 7 0 0.0 1.6 0.00 0.00 0.00 70 1014.7
20260508073047 7 0 0.0 1.6 0.00 0.00 0.00 71 1014.6
20260508072536 7 32 0.0 1.6 0.00 0.00 0.00 70 1014.6
20260508072036 7 0 0.0 1.6 0.00 0.00 0.00 70 1014.8
20260508071554 7 0 0.0 4.8 0.00 0.00 0.00 70 1014.7
20260508071036 7 32 0.0 4.8 0.00 0.00 0.00 69 1014.8
20260508070538 7 9 0.0 3.2 0.00 0.00 0.00 69 1014.8
20260508070134 8 30 0.0 6.4 0.00 0.00 0.00 69 1014.8
20260508065536 8 29 1.6 6.4 0.00 0.00 0.00 69 1015.0
20260508065038 8 47 3.2 6.4 0.00 0.00 0.00 68 1015.0
20260508064602 8 40 3.2 6.4 0.00 0.00 0.00 69 1015.1
20260508064036 8 351 3.2 6.4 0.00 0.00 0.00 68 1015.0
20260508063537 8 0 3.2 8.0 0.00 0.00 0.00 69 1015.1
20260508063046 8 41 3.2 8.0 0.00 0.00 0.00 69 1015.0
20260508062536 8 49 4.8 8.0 0.00 0.00 0.00 69 1015.1
20260508062034 8 18 4.8 8.0 0.00 0.00 0.00 69 1015.1
20260508061549 8 26 3.2 8.0 0.00 0.00 0.00 68 1015.1
20260508061035 8 27 3.2 8.0 0.00 0.00 0.00 68 1015.1
20260508060535 8 338 4.8 9.7 0.00 0.00 0.00 68 1015.1
20260508060045 8 42 4.8 9.7 0.00 0.00 0.00 68 1015.0
20260508055535 8 38 4.8 9.7 0.00 0.00 0.00 68 1015.0
20260508055037 8 28 4.8 8.0 0.00 0.00 0.00 68 1015.1
20260508054550 8 28 4.8 9.7 0.00 0.00 0.00 68 1015.1
20260508054036 8 349 4.8 9.7 0.00 0.00 0.00 69 1015.1
20260508053536 8 29 4.8 9.7 0.00 0.00 0.00 69 1015.1
20260508053101 8 323 4.8 9.7 0.00 0.00 0.00 69 1015.2
20260508052538 8 32 4.8 9.7 0.00 0.00 0.00 70 1015.2
20260508052035 8 28 4.8 8.0 0.00 0.00 0.00 72 1015.2
20260508051551 8 18 1.6 6.4 0.00 0.00 0.00 72 1015.3
20260508051035 8 14 1.6 4.8 0.00 0.00 0.00 73 1015.3
20260508050535 8 38 0.0 3.2 0.00 0.00 0.00 75 1015.2
20260508050047 8 15 0.0 4.8 0.00 0.00 0.00 74 1015.3
20260508045536 8 13 1.6 4.8 0.00 0.00 0.00 72 1015.2
20260508045036 8 21 1.6 4.8 0.00 0.00 0.00 74 1015.3
20260508044546 8 29 1.6 3.2 0.00 0.00 0.00 75 1015.2
20260508044036 8 348 0.0 1.6 0.00 0.00 0.00 73 1015.2
20260508043537 8 348 0.0 1.6 0.00 0.00 0.00 73 1015.1
20260508043058 8 0 0.0 1.6 0.00 0.00 0.00 73 1015.2
20260508042536 8 0 0.0 1.6 0.00 0.00 0.00 73 1015.2
20260508042036 8 0 0.0 0.0 0.00 0.00 0.00 73 1015.2
20260508041547 8 0 0.0 0.0 0.00 0.00 0.00 72 1015.3
20260508041033 8 0 0.0 0.0 0.00 0.00 0.00 72 1015.2
20260508040536 8 0 0.0 1.6 0.00 0.00 0.00 72 1015.2
20260508040050 8 0 0.0 1.6 0.00 0.00 0.00 71 1015.2
20260508035534 8 0 0.0 1.6 0.00 0.00 0.00 71 1015.2
20260508035035 8 0 0.0 1.6 0.00 0.00 0.00 72 1015.1
20260508034547 8 0 0.0 1.6 0.00 0.00 0.00 72 1015.2
20260508034034 8 0 0.0 1.6 0.00 0.00 0.00 72 1015.3
20260508033534 8 0 0.0 1.6 0.00 0.00 0.00 73 1015.3
20260508033050 8 0 0.0 1.6 0.00 0.00 0.00 73 1015.2
20260508032535 8 0 0.0 0.0 0.00 0.00 0.00 73 1015.2
20260508032035 8 0 0.0 0.0 0.00 0.00 0.00 75 1015.3
20260508031554 8 0 0.0 0.0 0.00 0.00 0.00 73 1015.2
20260508031037 8 0 0.0 0.0 0.00 0.00 0.00 73 1015.1
20260508030534 8 0 0.0 0.0 0.00 0.00 0.00 73 1015.1
20260508030056 8 0 0.0 0.0 0.00 0.00 0.00 74 1015.2
20260508025535 8 0 0.0 0.0 0.00 0.00 0.00 73 1015.1
20260508025036 7 0 0.0 1.6 0.00 0.00 0.00 74 1015.1
20260508024554 7 0 0.0 1.6 0.00 0.00 0.00 74 1015.2
20260508024036 7 0 0.0 1.6 0.00 0.00 0.00 73 1015.2
20260508023536 7 0 0.0 0.0 0.00 0.00 0.00 74 1015.1
20260508023046 7 0 0.0 0.0 0.00 0.00 0.00 72 1015.1
20260508022534 8 0 0.0 0.0 0.00 0.00 0.00 71 1015.2
20260508022035 8 0 0.0 0.0 0.00 0.00 0.00 70 1015.2
20260508021547 8 0 0.0 0.0 0.00 0.00 0.00 70 1015.2
20260508021034 8 0 0.0 0.0 0.00 0.00 0.00 69 1015.1
20260508020534 8 0 0.0 0.0 0.00 0.00 0.00 69 1015.2
20260508020048 8 0 0.0 0.0 0.00 0.00 0.00 68 1015.1
20260508015534 8 0 0.0 0.0 0.00 0.00 0.00 67 1015.2
20260508015036 8 0 0.0 0.0 0.00 0.00 0.00 67 1015.4
20260508014544 8 0 0.0 0.0 0.00 0.00 0.00 69 1015.3
20260508014037 8 0 0.0 0.0 0.00 0.00 0.00 68 1015.3
20260508013536 8 0 0.0 0.0 0.00 0.00 0.00 68 1015.2
20260508013044 8 0 0.0 0.0 0.00 0.00 0.00 69 1015.1
20260508012536 8 0 0.0 0.0 0.00 0.00 0.00 69 1015.2
20260508012035 8 0 0.0 0.0 0.00 0.00 0.00 71 1015.0
20260508011549 8 0 0.0 0.0 0.00 0.00 0.00 71 1015.1
20260508011035 8 0 0.0 0.0 0.00 0.00 0.00 69 1015.2
20260508010535 8 0 0.0 1.6 0.00 0.00 0.00 68 1015.2
20260508010048 9 0 0.0 1.6 0.00 0.00 0.00 66 1015.1
20260508005534 9 348 0.0 1.6 0.00 0.00 0.00 68 1015.1
20260508005039 10 0 0.0 0.0 0.00 0.00 0.00 64 1015.1
20260508004555 10 0 0.0 0.0 0.00 0.00 0.00 61 1015.0
20260508004036 10 0 0.0 0.0 0.00 0.00 0.00 61 1015.0
20260508003534 10 0 0.0 0.0 0.00 0.00 0.00 62 1015.1
20260508003047 11 0 0.0 0.0 0.00 0.00 0.00 60 1015.0
20260508002535 11 0 0.0 0.0 0.00 0.00 0.00 58 1014.9
20260508002035 11 0 0.0 0.0 0.00 0.00 0.00 57 1015.0
20260508001548 11 0 0.0 0.0 0.00 0.00 0.00 55 1014.8
20260508001036 12 0 0.0 0.0 0.00 0.00 0.00 54 1014.7
20260508000537 12 0 0.0 0.0 0.00 0.00 0.00 53 1014.7
20260508000043 12 0 0.0 0.0 0.00 0.00 0.00 52 1014.7
20260507235536 12 0 0.0 0.0 0.00 0.00 0.00 54 1014.7
20260507235036 12 0 0.0 3.2 0.00 0.00 0.00 51 1014.7
20260507234550 12 348 0.0 3.2 0.00 0.00 0.00 51 1014.7
20260507234037 13 271 0.0 1.6 0.00 0.00 0.00 48 1014.6
20260507233536 13 100 0.0 6.4 0.00 0.00 0.00 47 1014.6
20260507233048 13 331 0.0 6.4 0.00 0.00 0.00 47 1014.7
20260507232535 13 0 0.0 4.8 0.00 0.00 0.00 49 1014.7
20260507232036 13 0 0.0 3.2 0.00 0.00 0.00 48 1014.8
20260507231548 13 0 0.0 8.0 0.00 0.00 0.00 46 1014.8
20260507231035 13 0 0.0 8.0 0.00 0.00 0.00 46 1014.7
20260507230538 13 59 1.6 6.4 0.00 0.00 0.00 45 1014.7
20260507230051 14 0 0.0 12.9 0.00 0.00 0.00 47 1014.7
20260507225535 14 50 3.2 12.9 0.00 0.00 0.00 45 1014.7
20260507225035 14 0 0.0 3.2 0.00 0.00 0.00 43 1014.6
20260507224547 14 260 0.0 3.2 0.00 0.00 0.00 43 1014.6
20260507224035 15 0 0.0 6.4 0.00 0.00 0.00 43 1014.6
20260507223538 15 270 1.6 19.3 0.00 0.00 0.00 42 1014.6
20260507223043 15 30 4.8 19.3 0.00 0.00 0.00 41 1014.7
20260507222539 15 70 3.2 11.3 0.00 0.00 0.00 42 1014.7
20260507222036 15 279 0.0 8.0 0.00 0.00 0.00 43 1014.9
20260507221547 15 45 0.0 8.0 0.00 0.00 0.00 44 1014.8
20260507221035 15 297 1.6 6.4 0.00 0.00 0.00 45 1015.0
20260507220535 15 55 1.6 11.3 0.00 0.00 0.00 44 1015.0
20260507220048 15 263 1.6 11.3 0.00 0.00 0.00 44 1015.1
20260507215537 15 246 3.2 11.3 0.00 0.00 0.00 44 1015.0
20260507215036 15 256 0.0 8.0 0.00 0.00 0.00 45 1015.0
20260507214551 14 0 1.6 4.8 0.00 0.00 0.00 47 1015.0
20260507214036 14 281 0.0 12.9 0.00 0.00 0.00 46 1015.1
20260507213533 15 29 1.6 12.9 0.00 0.00 0.00 44 1015.2
20260507213100 15 340 1.6 12.9 0.00 0.00 0.00 45 1015.1
20260507212536 15 272 3.2 12.9 0.00 0.00 0.00 44 1015.1
20260507212036 15 69 1.6 19.3 0.00 0.00 0.00 42 1015.1
20260507211545 15 0 3.2 19.3 0.00 0.00 0.00 43 1015.0
20260507211032 15 74 3.2 12.9 0.00 0.00 0.00 44 1014.9
20260507210533 15 57 3.2 14.5 0.00 0.00 0.00 45 1014.7
20260507210050 15 262 4.8 14.5 0.00 0.00 0.00 43 1014.9
20260507205536 15 87 3.2 16.1 0.00 0.00 0.00 44 1014.8
20260507205035 15 82 3.2 16.1 0.00 0.00 0.00 44 1014.8
20260507204554 15 259 3.2 16.1 0.00 0.00 0.00 44 1014.9
20260507204037 14 283 3.2 9.7 0.00 0.00 0.00 46 1014.8
20260507203533 14 269 3.2 12.9 0.00 0.00 0.00 45 1014.8
20260507203047 14 240 1.6 12.9 0.00 0.00 0.00 43 1014.9
20260507202536 15 267 3.2 12.9 0.00 0.00 0.00 42 1014.8
20260507202032 15 271 1.6 16.1 0.00 0.00 0.00 42 1014.8
20260507201555 15 115 3.2 16.1 0.00 0.00 0.00 45 1014.8
20260507201033 15 84 3.2 17.7 0.00 0.00 0.00 46 1014.8